Location: Castle
(40.7167°S, 175.9500°E)
Time: 20:39:03
(UTC+00:00)

ARIANE 6 FM1 Upper Stage - Visible Passes

Search period start: 04 October 2024 00:00
Search period end: 14 October 2024 00:00
Orbit: 564 x 594 km, 62.0° (Epoch: 04 October)

Date Brightness Start Highest point End Pass type
(mag) Time Alt. Az. Time Alt. Az. Time Alt. Az.
04 Oct 4.2 15:12:58 32° ENE 15:12:58 32° ENE 15:16:42 10° SE visible
04 Oct 3.8 16:49:17 15° W 16:52:09 30° SW 16:56:01 10° SSE visible
05 Oct 3.4 15:17:36 51° ENE 15:17:36 51° ENE 15:21:27 10° SE visible
05 Oct 4.4 16:53:54 12° W 16:56:49 21° SW 17:00:10 10° S visible
06 Oct 2.9 15:22:07 70° SE 15:22:07 70° SE 15:26:00 10° SE visible
06 Oct 4.8 16:58:57 10° WSW 17:01:33 15° SW 17:04:07 10° S visible
07 Oct 3.1 15:26:33 55° SSW 15:26:33 55° SSW 15:30:23 10° SSE visible
07 Oct 5.1 17:05:01 10° SW 17:06:18 11° SSW 17:07:35 10° SSW visible
08 Oct 5.8 13:54:37 12° ESE 13:54:37 12° ESE 13:54:59 10° ESE visible
08 Oct 3.7 15:30:54 37° SW 15:30:54 37° SW 15:34:39 10° SSE visible
09 Oct 5.6 13:58:53 15° SE 13:58:53 15° SE 13:59:46 10° SE visible
09 Oct 4.2 15:35:10 25° SW 15:35:10 25° SW 15:38:46 10° SSE visible
10 Oct 5.4 14:03:06 18° SE 14:03:06 18° SE 14:04:18 10° SE visible
10 Oct 4.6 15:39:22 18° SW 15:39:43 18° SW 15:42:44 10° S visible
11 Oct 5.2 14:07:14 20° SSE 14:07:14 20° SSE 14:08:40 10° SSE visible
11 Oct 5.0 15:43:30 13° SW 15:44:20 13° SSW 15:46:26 10° S visible
12 Oct 5.1 14:11:18 21° SSE 14:11:18 21° SSE 14:12:53 10° SSE visible
13 Oct 5.1 14:15:19 20° S 14:15:19 20° S 14:16:59 10° SSE visible
